owner,sensor,date,latitude,longitude,sea_surface_height_above_sea_level,qcFlag 
TCOON,ioos:station:TCOON:524:1,2015-08-03T04:18:00Z,29.8672,-93.9310,1.612,1111122 
TCOON,ioos:station:TCOON:524:1,2015-08-03T05:18:00Z,29.8672,-93.9310,1.525,1111122 
TCOON,ioos:station:TCOON:524:1,2015-08-03T06:18:00Z,29.8672,-93.9310,1.558,1111122 
TCOON,ioos:station:TCOON:524:1,2015-08-04T03:12:00Z,29.8672,-93.9310,1.697,1111122 
TCOON,ioos:station:TCOON:524:1,2015-08-04T04:12:00Z,29.8672,-93.9310,1.665,1111122 
TCOON,ioos:station:TCOON:524:1,2015-08-04T05:12:00Z,29.8672,-93.9310,1.616,1111122 
TCOON,ioos:station:TCOON:524:1,2015-08-04T06:12:00Z,29.8672,-93.9310,1.565,1111122 
TCOON,ioos:station:TCOON:524:1,2015-08-04T07:24:00Z,29.8672,-93.9310,1.543,1111122 
TCOON,ioos:station:TCOON:524:1,2015-08-04T08:12:00Z,29.8672,-93.9310,1.571,1111122 
TCOON,ioos:station:TCOON:524:1,2015-08-04T09:12:00Z,29.8672,-93.9310,1.545,1111122 
TCOON,ioos:station:TCOON:524:1,2015-08-04T10:12:00Z,29.8672,-93.9310,1.579,1111122 
TCOON,ioos:station:TCOON:524:1,2015-08-04T11:18:00Z,29.8672,-93.9310,1.606,1111122 
TCOON,ioos:station:TCOON:524:1,2015-08-04T12:18:00Z,29.8672,-93.9310,1.649,1111122 
TCOON,ioos:station:TCOON:524:1,2015-08-04T13:12:00Z,29.8672,-93.9310,1.722,1111122 
TCOON,ioos:station:TCOON:524:1,2015-08-04T14:12:00Z,29.8672,-93.9310,1.684,1111122 
TCOON,ioos:station:TCOON:524:1,2015-08-04T15:18:00Z,29.8672,-93.9310,1.729,1111122 
TCOON,ioos:station:TCOON:524:1,2015-08-04T20:00:00Z,29.8672,-93.9310,1.554,1111122 
TCOON,ioos:station:TCOON:524:1,2015-08-04T21:18:00Z,29.8672,-93.9310,1.554,1111122 
TCOON,ioos:station:TCOON:524:1,2015-08-04T23:06:00Z,29.8672,-93.9310,1.592,1111122 
TCOON,ioos:station:TCOON:524:1,2015-08-05T00:18:00Z,29.8672,-93.9310,1.641,1111122 
TCOON,ioos:station:TCOON:524:1,2015-08-05T01:18:00Z,29.8672,-93.9310,1.679,1111122 
TCOON,ioos:station:TCOON:524:1,2015-08-05T02:12:00Z,29.8672,-93.9310,1.709,1111122 
TCOON,ioos:station:TCOON:524:1,2015-08-05T03:12:00Z,29.8672,-93.9310,1.702,1111122 
TCOON,ioos:station:TCOON:524:1,2015-08-05T04:12:00Z,29.8672,-93.9310,1.685,1111122 
TCOON,ioos:station:TCOON:524:1,2015-08-05T05:12:00Z,29.8672,-93.9310,1.661,1111122 
TCOON,ioos:station:TCOON:524:1,2015-08-05T06:12:00Z,29.8672,-93.9310,1.613,1111122 
TCOON,ioos:station:TCOON:524:1,2015-08-05T07:24:00Z,29.8672,-93.9310,1.575,1111122 
TCOON,ioos:station:TCOON:524:1,2015-08-05T08:12:00Z,29.8672,-93.9310,1.583,1111122 
TCOON,ioos:station:TCOON:524:1,2015-08-05T09:12:00Z,29.8672,-93.9310,1.571,1111122 
TCOON,ioos:station:TCOON:524:1,2015-08-05T10:12:00Z,29.8672,-93.9310,1.571,1111122 
TCOON,ioos:station:TCOON:524:1,2015-08-05T11:12:00Z,29.8672,-93.9310,1.62,1111122 
TCOON,ioos:station:TCOON:524:1,2015-08-05T12:48:00Z,29.8672,-93.9310,1.637,1111122 
TCOON,ioos:station:TCOON:524:1,2015-08-05T13:12:00Z,29.8672,-93.9310,1.649,1111122 
TCOON,ioos:station:TCOON:524:1,2015-08-05T14:18:00Z,29.8672,-93.9310,1.692,1111122 
TCOON,ioos:station:TCOON:524:1,2015-08-05T15:36:00Z,29.8672,-93.9310,1.666,1111122 
TCOON,ioos:station:TCOON:524:1,2015-08-05T16:12:00Z,29.8672,-93.9310,1.657,1111122 
TCOON,ioos:station:TCOON:524:1,2015-08-05T17:54:00Z,29.8672,-93.9310,1.599,1111122 
TCOON,ioos:station:TCOON:524:1,2015-08-05T18:12:00Z,29.8672,-93.9310,1.586,1111122 
TCOON,ioos:station:TCOON:524:1,2015-08-05T19:12:00Z,29.8672,-93.9310,1.569,1111122 
TCOON,ioos:station:TCOON:524:1,2015-08-05T20:12:00Z,29.8672,-93.9310,1.463,1111122 
TCOON,ioos:station:TCOON:524:1,2015-08-05T21:18:00Z,29.8672,-93.9310,1.449,1111122 
TCOON,ioos:station:TCOON:524:1,2015-08-05T22:24:00Z,29.8672,-93.9310,1.503,1111122 
TCOON,ioos:station:TCOON:524:1,2015-08-05T23:18:00Z,29.8672,-93.9310,1.517,1111122 
TCOON,ioos:station:TCOON:524:1,2015-08-06T00:18:00Z,29.8672,-93.9310,1.541,1111122 
TCOON,ioos:station:TCOON:524:1,2015-08-06T01:18:00Z,29.8672,-93.9310,1.583,1111122 
TCOON,ioos:station:TCOON:524:1,2015-08-06T02:12:00Z,29.8672,-93.9310,1.627,1111122 
TCOON,ioos:station:TCOON:524:1,2015-08-06T03:12:00Z,29.8672,-93.9310,1.684,1111122 
TCOON,ioos:station:TCOON:524:1,2015-08-06T04:12:00Z,29.8672,-93.9310,1.671,1111122 
TCOON,ioos:station:TCOON:524:1,2015-08-06T05:12:00Z,29.8672,-93.9310,1.673,1111122 
TCOON,ioos:station:TCOON:524:1,2015-08-06T06:36:00Z,29.8672,-93.9310,1.7,1111122 
TCOON,ioos:station:TCOON:524:1,2015-08-06T08:06:00Z,29.8672,-93.9310,1.669,1111122 
TCOON,ioos:station:TCOON:524:1,2015-08-06T09:18:00Z,29.8672,-93.9310,1.661,1111122 
TCOON,ioos:station:TCOON:524:1,2015-08-06T11:06:00Z,29.8672,-93.9310,1.646,1111122 
TCOON,ioos:station:TCOON:524:1,2015-08-06T12:18:00Z,29.8672,-93.9310,1.644,1111122 
TCOON,ioos:station:TCOON:524:1,2015-08-06T13:12:00Z,29.8672,-93.9310,1.643,1111122 
TCOON,ioos:station:TCOON:524:1,2015-08-06T14:12:00Z,29.8672,-93.9310,1.656,1111122 
TCOON,ioos:station:TCOON:524:1,2015-08-06T15:24:00Z,29.8672,-93.9310,1.693,1111122 
TCOON,ioos:station:TCOON:524:1,2015-08-06T16:12:00Z,29.8672,-93.9310,1.663,1111122 
TCOON,ioos:station:TCOON:524:1,2015-08-06T17:12:00Z,29.8672,-93.9310,1.635,1111122 
TCOON,ioos:station:TCOON:524:1,2015-08-06T18:12:00Z,29.8672,-93.9310,1.63,1111122 
TCOON,ioos:station:TCOON:524:1,2015-08-06T19:48:00Z,29.8672,-93.9310,1.514,1111122 
TCOON,ioos:station:TCOON:524:1,2015-08-06T20:30:00Z,29.8672,-93.9310,1.558,1111122 
TCOON,ioos:station:TCOON:524:1,2015-08-06T22:30:00Z,29.8672,-93.9310,1.411,1111122 
TCOON,ioos:station:TCOON:524:1,2015-08-06T23:18:00Z,29.8672,-93.9310,1.429,1111122 
TCOON,ioos:station:TCOON:524:1,2015-08-07T00:18:00Z,29.8672,-93.9310,1.467,1111122 
TCOON,ioos:station:TCOON:524:1,2015-08-07T04:30:00Z,29.8672,-93.9310,1.677,1111122 
TCOON,ioos:station:TCOON:524:1,2015-08-07T06:12:00Z,29.8672,-93.9310,1.703,1111122 
TCOON,ioos:station:TCOON:524:1,2015-08-07T07:36:00Z,29.8672,-93.9310,1.705,1111122 
TCOON,ioos:station:TCOON:524:1,2015-08-07T08:24:00Z,29.8672,-93.9310,1.711,1111122 
TCOON,ioos:station:TCOON:524:1,2015-08-07T10:30:00Z,29.8672,-93.9310,1.686,1111122 
TCOON,ioos:station:TCOON:524:1,2015-08-07T11:12:00Z,29.8672,-93.9310,1.702,1111122 
TCOON,ioos:station:TCOON:524:1,2015-08-07T12:12:00Z,29.8672,-93.9310,1.701,1111122 
TCOON,ioos:station:TCOON:524:1,2015-08-07T13:12:00Z,29.8672,-93.9310,1.676,1111122 
TCOON,ioos:station:TCOON:524:1,2015-08-07T14:12:00Z,29.8672,-93.9310,1.712,1111122 
TCOON,ioos:station:TCOON:524:1,2015-08-07T15:12:00Z,29.8672,-93.9310,1.702,1111122 
TCOON,ioos:station:TCOON:524:1,2015-08-07T16:12:00Z,29.8672,-93.9310,1.736,1111122 
TCOON,ioos:station:TCOON:524:1,2015-08-07T17:12:00Z,29.8672,-93.9310,1.661,1111122 
TCOON,ioos:station:TCOON:524:1,2015-08-07T18:12:00Z,29.8672,-93.9310,1.604,1111122 
TCOON,ioos:station:TCOON:524:1,2015-08-07T19:12:00Z,29.8672,-93.9310,1.554,1111122 
TCOON,ioos:station:TCOON:524:1,2015-08-07T20:12:00Z,29.8672,-93.9310,1.497,1111122 
TCOON,ioos:station:TCOON:524:1,2015-08-07T21:18:00Z,29.8672,-93.9310,1.395,1111122 
TCOON,ioos:station:TCOON:524:1,2015-08-07T22:12:00Z,29.8672,-93.9310,1.358,1111122 
TCOON,ioos:station:TCOON:524:1,2015-08-07T23:12:00Z,29.8672,-93.9310,1.365,1111122 
TCOON,ioos:station:TCOON:524:1,2015-08-08T00:12:00Z,29.8672,-93.9310,1.454,1111122 
TCOON,ioos:station:TCOON:524:1,2015-08-08T01:18:00Z,29.8672,-93.9310,1.379,1111122 
TCOON,ioos:station:TCOON:524:1,2015-08-08T02:24:00Z,29.8672,-93.9310,1.429,1111122 
TCOON,ioos:station:TCOON:524:1,2015-08-08T03:18:00Z,29.8672,-93.9310,1.506,1111122 
TCOON,ioos:station:TCOON:524:1,2015-08-08T04:18:00Z,29.8672,-93.9310,1.578,1111122 
TCOON,ioos:station:TCOON:524:1,2015-08-08T05:30:00Z,29.8672,-93.9310,1.588,1111122 
TCOON,ioos:station:TCOON:524:1,2015-08-08T06:30:00Z,29.8672,-93.9310,1.639,1111122 
TCOON,ioos:station:TCOON:524:1,2015-08-08T07:12:00Z,29.8672,-93.9310,1.635,1111122 
TCOON,ioos:station:TCOON:524:1,2015-08-08T08:18:00Z,29.8672,-93.9310,1.657,1111122 
TCOON,ioos:station:TCOON:524:1,2015-08-08T09:18:00Z,29.8672,-93.9310,1.651,1111122 
TCOON,ioos:station:TCOON:524:1,2015-08-08T10:12:00Z,29.8672,-93.9310,1.646,1111122 
TCOON,ioos:station:TCOON:524:1,2015-08-08T11:18:00Z,29.8672,-93.9310,1.659,1111122 
TCOON,ioos:station:TCOON:524:1,2015-08-08T12:12:00Z,29.8672,-93.9310,1.618,1111122 
TCOON,ioos:station:TCOON:524:1,2015-08-08T13:12:00Z,29.8672,-93.9310,1.612,1111122 
TCOON,ioos:station:TCOON:524:1,2015-08-08T14:12:00Z,29.8672,-93.9310,1.626,1111122 
TCOON,ioos:station:TCOON:524:1,2015-08-08T15:12:00Z,29.8672,-93.9310,1.682,1111122 
TCOON,ioos:station:TCOON:524:1,2015-08-08T16:12:00Z,29.8672,-93.9310,1.625,1111122 
TCOON,ioos:station:TCOON:524:1,2015-08-08T17:12:00Z,29.8672,-93.9310,1.63,1111122 
TCOON,ioos:station:TCOON:524:1,2015-08-08T18:12:00Z,29.8672,-93.9310,1.597,1111122 
TCOON,ioos:station:TCOON:524:1,2015-08-08T19:12:00Z,29.8672,-93.9310,1.568,1111122 
TCOON,ioos:station:TCOON:524:1,2015-08-08T20:12:00Z,29.8672,-93.9310,1.501,1111122 
TCOON,ioos:station:TCOON:524:1,2015-08-08T21:18:00Z,29.8672,-93.9310,1.478,1111122 
TCOON,ioos:station:TCOON:524:1,2015-08-08T22:12:00Z,29.8672,-93.9310,1.399,1111122 
TCOON,ioos:station:TCOON:524:1,2015-08-08T23:12:00Z,29.8672,-93.9310,1.33,1111122 
TCOON,ioos:station:TCOON:524:1,2015-08-09T00:12:00Z,29.8672,-93.9310,1.331,1111122 
TCOON,ioos:station:TCOON:524:1,2015-08-09T01:12:00Z,29.8672,-93.9310,1.331,1111122 
TCOON,ioos:station:TCOON:524:1,2015-08-09T02:12:00Z,29.8672,-93.9310,1.371,1111122 
TCOON,ioos:station:TCOON:524:1,2015-08-09T03:12:00Z,29.8672,-93.9310,1.418,1111122 
TCOON,ioos:station:TCOON:524:1,2015-08-09T04:12:00Z,29.8672,-93.9310,1.478,1111122 
TCOON,ioos:station:TCOON:524:1,2015-08-09T05:12:00Z,29.8672,-93.9310,1.533,1111122 
TCOON,ioos:station:TCOON:524:1,2015-08-09T06:12:00Z,29.8672,-93.9310,1.598,1111122 
TCOON,ioos:station:TCOON:524:1,2015-08-09T07:12:00Z,29.8672,-93.9310,1.62,1111122 
TCOON,ioos:station:TCOON:524:1,2015-08-09T08:12:00Z,29.8672,-93.9310,1.614,1111122 
TCOON,ioos:station:TCOON:524:1,2015-08-09T09:12:00Z,29.8672,-93.9310,1.652,1111122 
TCOON,ioos:station:TCOON:524:1,2015-08-09T10:12:00Z,29.8672,-93.9310,1.664,1111122 
TCOON,ioos:station:TCOON:524:1,2015-08-09T11:18:00Z,29.8672,-93.9310,1.654,1111122 
TCOON,ioos:station:TCOON:524:1,2015-08-09T12:18:00Z,29.8672,-93.9310,1.655,1111122 
TCOON,ioos:station:TCOON:524:1,2015-08-09T13:18:00Z,29.8672,-93.9310,1.651,1111122 
TCOON,ioos:station:TCOON:524:1,2015-08-09T14:18:00Z,29.8672,-93.9310,1.635,1111122 
TCOON,ioos:station:TCOON:524:1,2015-08-09T15:18:00Z,29.8672,-93.9310,1.628,1111122 
TCOON,ioos:station:TCOON:524:1,2015-08-09T16:18:00Z,29.8672,-93.9310,1.621,1111122 
TCOON,ioos:station:TCOON:524:1,2015-08-09T17:12:00Z,29.8672,-93.9310,1.611,1111122 
TCOON,ioos:station:TCOON:524:1,2015-08-09T18:12:00Z,29.8672,-93.9310,1.551,1111122 
TCOON,ioos:station:TCOON:524:1,2015-08-09T19:12:00Z,29.8672,-93.9310,1.55,1111122 
TCOON,ioos:station:TCOON:524:1,2015-08-09T20:12:00Z,29.8672,-93.9310,1.554,1111122 
TCOON,ioos:station:TCOON:524:1,2015-08-09T21:12:00Z,29.8672,-93.9310,1.474,1111122 
TCOON,ioos:station:TCOON:524:1,2015-08-09T22:12:00Z,29.8672,-93.9310,1.409,1111122 
TCOON,ioos:station:TCOON:524:1,2015-08-09T23:12:00Z,29.8672,-93.9310,1.361,1111122 
TCOON,ioos:station:TCOON:524:1,2015-08-10T00:12:00Z,29.8672,-93.9310,1.367,1111122 
TCOON,ioos:station:TCOON:524:1,2015-08-10T01:12:00Z,29.8672,-93.9310,1.372,1111122 
TCOON,ioos:station:TCOON:524:1,2015-08-10T02:12:00Z,29.8672,-93.9310,1.349,1111122 
TCOON,ioos:station:TCOON:524:1,2015-08-10T03:12:00Z,29.8672,-93.9310,1.358,1111122 
TCOON,ioos:station:TCOON:524:1,2015-08-10T04:12:00Z,29.8672,-93.9310,1.327,1111122 
TCOON,ioos:station:TCOON:524:1,2015-08-10T05:12:00Z,29.8672,-93.9310,1.429,1111122 
TCOON,ioos:station:TCOON:524:1,2015-08-10T06:18:00Z,29.8672,-93.9310,1.517,1111122 
TCOON,ioos:station:TCOON:524:1,2015-08-10T07:12:00Z,29.8672,-93.9310,1.555,1111122 
TCOON,ioos:station:TCOON:524:1,2015-08-10T08:12:00Z,29.8672,-93.9310,1.606,1111122 
TCOON,ioos:station:TCOON:524:1,2015-08-10T09:12:00Z,29.8672,-93.9310,1.618,1111122 
TCOON,ioos:station:TCOON:524:1,2015-08-10T10:18:00Z,29.8672,-93.9310,1.617,1111122 
TCOON,ioos:station:TCOON:524:1,2015-08-10T11:24:00Z,29.8672,-93.9310,1.659,1111122 
TCOON,ioos:station:TCOON:524:1,2015-08-10T12:18:00Z,29.8672,-93.9310,1.646,1111122 
TCOON,ioos:station:TCOON:524:1,2015-08-10T13:24:00Z,29.8672,-93.9310,1.645,1111122 
TCOON,ioos:station:TCOON:524:1,2015-08-10T14:12:00Z,29.8672,-93.9310,1.585,1111122 
TCOON,ioos:station:TCOON:524:1,2015-08-10T15:12:00Z,29.8672,-93.9310,1.622,1111122 
TCOON,ioos:station:TCOON:524:1,2015-08-10T16:18:00Z,29.8672,-93.9310,1.636,1111122 
TCOON,ioos:station:TCOON:524:1,2015-08-10T17:12:00Z,29.8672,-93.9310,1.614,1111122 
TCOON,ioos:station:TCOON:524:1,2015-08-10T18:24:00Z,29.8672,-93.9310,1.611,1111122 
TCOON,ioos:station:TCOON:524:1,2015-08-10T19:18:00Z,29.8672,-93.9310,1.689,1111122 
TCOON,ioos:station:TCOON:524:1,2015-08-10T20:18:00Z,29.8672,-93.9310,1.621,1111122 
TCOON,ioos:station:TCOON:524:1,2015-08-10T21:18:00Z,29.8672,-93.9310,1.565,1111122 
TCOON,ioos:station:TCOON:524:1,2015-08-10T22:36:00Z,29.8672,-93.9310,1.519,1111122 
TCOON,ioos:station:TCOON:524:1,2015-08-10T23:24:00Z,29.8672,-93.9310,1.471,1111122 
TCOON,ioos:station:TCOON:524:1,2015-08-11T00:18:00Z,29.8672,-93.9310,1.441,1111122 
TCOON,ioos:station:TCOON:524:1,2015-08-11T01:12:00Z,29.8672,-93.9310,1.362,1111122 
TCOON,ioos:station:TCOON:524:1,2015-08-11T02:12:00Z,29.8672,-93.9310,1.331,1111122 
TCOON,ioos:station:TCOON:524:1,2015-08-11T03:18:00Z,29.8672,-93.9310,1.387,1111122 
TCOON,ioos:station:TCOON:524:1,2015-08-11T04:12:00Z,29.8672,-93.9310,1.4,1111122 
TCOON,ioos:station:TCOON:524:1,2015-08-11T05:12:00Z,29.8672,-93.9310,1.461,1111122 
TCOON,ioos:station:TCOON:524:1,2015-08-11T06:18:00Z,29.8672,-93.9310,1.512,1111122 
TCOON,ioos:station:TCOON:524:1,2015-08-11T07:12:00Z,29.8672,-93.9310,1.637,1111122 
TCOON,ioos:station:TCOON:524:1,2015-08-11T08:12:00Z,29.8672,-93.9310,1.619,1111122 
TCOON,ioos:station:TCOON:524:1,2015-08-11T09:12:00Z,29.8672,-93.9310,1.649,1111122 
TCOON,ioos:station:TCOON:524:1,2015-08-11T10:12:00Z,29.8672,-93.9310,1.675,1111122 
TCOON,ioos:station:TCOON:524:1,2015-08-11T11:12:00Z,29.8672,-93.9310,1.687,1111122 
TCOON,ioos:station:TCOON:524:1,2015-08-11T12:18:00Z,29.8672,-93.9310,1.696,1111122 
TCOON,ioos:station:TCOON:524:1,2015-08-11T13:18:00Z,29.8672,-93.9310,1.724,1111122 
TCOON,ioos:station:TCOON:524:1,2015-08-11T14:12:00Z,29.8672,-93.9310,1.718,1111122 
TCOON,ioos:station:TCOON:524:1,2015-08-11T15:18:00Z,29.8672,-93.9310,1.714,1111122 
TCOON,ioos:station:TCOON:524:1,2015-08-11T16:24:00Z,29.8672,-93.9310,1.708,1111122 
TCOON,ioos:station:TCOON:524:1,2015-08-11T17:18:00Z,29.8672,-93.9310,1.712,1111122 
TCOON,ioos:station:TCOON:524:1,2015-08-11T18:18:00Z,29.8672,-93.9310,1.702,1111122 
TCOON,ioos:station:TCOON:524:1,2015-08-11T19:18:00Z,29.8672,-93.9310,1.72,1111122 
TCOON,ioos:station:TCOON:524:1,2015-08-11T20:18:00Z,29.8672,-93.9310,1.716,1111122 
TCOON,ioos:station:TCOON:524:1,2015-08-11T21:18:00Z,29.8672,-93.9310,1.68,1111122 
TCOON,ioos:station:TCOON:524:1,2015-08-11T22:12:00Z,29.8672,-93.9310,1.684,1111122 
TCOON,ioos:station:TCOON:524:1,2015-08-11T23:18:00Z,29.8672,-93.9310,1.813,1111122 
TCOON,ioos:station:TCOON:524:1,2015-08-12T00:18:00Z,29.8672,-93.9310,1.39,1111122 
TCOON,ioos:station:TCOON:524:1,2015-08-12T01:12:00Z,29.8672,-93.9310,1.521,1111122 
TCOON,ioos:station:TCOON:524:1,2015-08-12T02:12:00Z,29.8672,-93.9310,1.531,1111122 
TCOON,ioos:station:TCOON:524:1,2015-08-12T03:12:00Z,29.8672,-93.9310,1.371,1111122 
TCOON,ioos:station:TCOON:524:1,2015-08-12T04:12:00Z,29.8672,-93.9310,1.412,1111122 
TCOON,ioos:station:TCOON:524:1,2015-08-12T05:12:00Z,29.8672,-93.9310,1.494,1111122 
TCOON,ioos:station:TCOON:524:1,2015-08-12T06:12:00Z,29.8672,-93.9310,1.513,1111122 
TCOON,ioos:station:TCOON:524:1,2015-08-12T07:54:00Z,29.8672,-93.9310,1.631,1111122 
TCOON,ioos:station:TCOON:524:1,2015-08-12T08:18:00Z,29.8672,-93.9310,1.649,1111122 
TCOON,ioos:station:TCOON:524:1,2015-08-12T09:12:00Z,29.8672,-93.9310,1.721,1111122 
TCOON,ioos:station:TCOON:524:1,2015-08-12T10:12:00Z,29.8672,-93.9310,1.7,1111122 
TCOON,ioos:station:TCOON:524:1,2015-08-12T11:18:00Z,29.8672,-93.9310,1.711,1111122 
TCOON,ioos:station:TCOON:524:1,2015-08-12T12:18:00Z,29.8672,-93.9310,1.722,1111122 
TCOON,ioos:station:TCOON:524:1,2015-08-12T13:12:00Z,29.8672,-93.9310,1.738,1111122 
TCOON,ioos:station:TCOON:524:1,2015-08-12T14:12:00Z,29.8672,-93.9310,1.705,1111122 
TCOON,ioos:station:TCOON:524:1,2015-08-12T15:12:00Z,29.8672,-93.9310,1.685,1111122 
TCOON,ioos:station:TCOON:524:1,2015-08-12T16:12:00Z,29.8672,-93.9310,1.701,1111122 
TCOON,ioos:station:TCOON:524:1,2015-08-12T17:18:00Z,29.8672,-93.9310,1.698,1111122 
TCOON,ioos:station:TCOON:524:1,2015-08-12T18:12:00Z,29.8672,-93.9310,1.718,1111122 
TCOON,ioos:station:TCOON:524:1,2015-08-12T19:12:00Z,29.8672,-93.9310,1.701,1111122 
TCOON,ioos:station:TCOON:524:1,2015-08-12T20:18:00Z,29.8672,-93.9310,1.705,1111122 
TCOON,ioos:station:TCOON:524:1,2015-08-12T21:36:00Z,29.8672,-93.9310,1.7,1111122 
TCOON,ioos:station:TCOON:524:1,2015-08-12T23:00:00Z,29.8672,-93.9310,1.672,1111122 
TCOON,ioos:station:TCOON:524:1,2015-08-13T00:12:00Z,29.8672,-93.9310,1.613,1111122 
TCOON,ioos:station:TCOON:524:1,2015-08-13T01:18:00Z,29.8672,-93.9310,1.544,1111122 
TCOON,ioos:station:TCOON:524:1,2015-08-13T02:18:00Z,29.8672,-93.9310,1.419,1111122 
TCOON,ioos:station:TCOON:524:1,2015-08-13T03:24:00Z,29.8672,-93.9310,1.454,1111122 
TCOON,ioos:station:TCOON:524:1,2015-08-13T04:12:00Z,29.8672,-93.9310,1.444,1111122 
TCOON,ioos:station:TCOON:524:1,2015-08-13T05:18:00Z,29.8672,-93.9310,1.433,1111122 
TCOON,ioos:station:TCOON:524:1,2015-08-13T06:18:00Z,29.8672,-93.9310,1.494,1111122 
TCOON,ioos:station:TCOON:524:1,2015-08-13T07:48:00Z,29.8672,-93.9310,1.611,1111122 
TCOON,ioos:station:TCOON:524:1,2015-08-13T08:18:00Z,29.8672,-93.9310,1.575,1111122 
TCOON,ioos:station:TCOON:524:1,2015-08-13T09:12:00Z,29.8672,-93.9310,1.631,1111122 
TCOON,ioos:station:TCOON:524:1,2015-08-13T10:12:00Z,29.8672,-93.9310,1.635,1111122 
TCOON,ioos:station:TCOON:524:1,2015-08-13T11:12:00Z,29.8672,-93.9310,1.66,1111122 
TCOON,ioos:station:TCOON:524:1,2015-08-13T12:12:00Z,29.8672,-93.9310,1.686,1111122 
TCOON,ioos:station:TCOON:524:1,2015-08-13T13:12:00Z,29.8672,-93.9310,1.688,1111122 
TCOON,ioos:station:TCOON:524:1,2015-08-13T14:12:00Z,29.8672,-93.9310,1.707,1111122 
TCOON,ioos:station:TCOON:524:1,2015-08-13T15:12:00Z,29.8672,-93.9310,1.652,1111122 
TCOON,ioos:station:TCOON:524:1,2015-08-13T16:12:00Z,29.8672,-93.9310,1.655,1111122 
TCOON,ioos:station:TCOON:524:1,2015-08-13T17:12:00Z,29.8672,-93.9310,1.631,1111122 
TCOON,ioos:station:TCOON:524:1,2015-08-13T18:12:00Z,29.8672,-93.9310,1.647,1111122 
TCOON,ioos:station:TCOON:524:1,2015-08-13T19:12:00Z,29.8672,-93.9310,1.638,1111122 
TCOON,ioos:station:TCOON:524:1,2015-08-13T20:18:00Z,29.8672,-93.9310,1.657,1111122 
TCOON,ioos:station:TCOON:524:1,2015-08-13T21:12:00Z,29.8672,-93.9310,1.689,1111122 
TCOON,ioos:station:TCOON:524:1,2015-08-13T22:24:00Z,29.8672,-93.9310,1.667,1111122 
TCOON,ioos:station:TCOON:524:1,2015-08-13T23:12:00Z,29.8672,-93.9310,1.63,1111122 
TCOON,ioos:station:TCOON:524:1,2015-08-14T00:12:00Z,29.8672,-93.9310,1.641,1111122 
TCOON,ioos:station:TCOON:524:1,2015-08-14T01:12:00Z,29.8672,-93.9310,1.564,1111122 
TCOON,ioos:station:TCOON:524:1,2015-08-14T02:12:00Z,29.8672,-93.9310,1.456,1111122 
TCOON,ioos:station:TCOON:524:1,2015-08-14T03:12:00Z,29.8672,-93.9310,1.417,1111122 
TCOON,ioos:station:TCOON:524:1,2015-08-14T04:18:00Z,29.8672,-93.9310,1.411,1111122 
TCOON,ioos:station:TCOON:524:1,2015-08-14T05:18:00Z,29.8672,-93.9310,1.421,1111122 
TCOON,ioos:station:TCOON:524:1,2015-08-14T06:18:00Z,29.8672,-93.9310,1.472,1111122 
TCOON,ioos:station:TCOON:524:1,2015-08-14T08:00:00Z,29.8672,-93.9310,1.51,1111122 
TCOON,ioos:station:TCOON:524:1,2015-08-14T09:12:00Z,29.8672,-93.9310,1.589,1111122 
TCOON,ioos:station:TCOON:524:1,2015-08-14T10:12:00Z,29.8672,-93.9310,1.657,1111122 
TCOON,ioos:station:TCOON:524:1,2015-08-14T11:12:00Z,29.8672,-93.9310,1.658,1111122 
TCOON,ioos:station:TCOON:524:1,2015-08-14T12:12:00Z,29.8672,-93.9310,1.652,1111122 
TCOON,ioos:station:TCOON:524:1,2015-08-14T13:12:00Z,29.8672,-93.9310,1.673,1111122 
TCOON,ioos:station:TCOON:524:1,2015-08-14T14:12:00Z,29.8672,-93.9310,1.621,1111122 
TCOON,ioos:station:TCOON:524:1,2015-08-14T15:12:00Z,29.8672,-93.9310,1.694,1111122 
TCOON,ioos:station:TCOON:524:1,2015-08-14T16:12:00Z,29.8672,-93.9310,1.655,1111122 
TCOON,ioos:station:TCOON:524:1,2015-08-14T17:12:00Z,29.8672,-93.9310,1.637,1111122 
TCOON,ioos:station:TCOON:524:1,2015-08-14T18:12:00Z,29.8672,-93.9310,1.659,1111122 
TCOON,ioos:station:TCOON:524:1,2015-08-14T19:12:00Z,29.8672,-93.9310,1.66,1111122 
TCOON,ioos:station:TCOON:524:1,2015-08-14T20:12:00Z,29.8672,-93.9310,1.7,1111122 
TCOON,ioos:station:TCOON:524:1,2015-08-14T21:12:00Z,29.8672,-93.9310,1.715,1111122 
TCOON,ioos:station:TCOON:524:1,2015-08-14T22:18:00Z,29.8672,-93.9310,1.687,1111122 
TCOON,ioos:station:TCOON:524:1,2015-08-14T23:12:00Z,29.8672,-93.9310,1.688,1111122 
TCOON,ioos:station:TCOON:524:1,2015-08-15T00:12:00Z,29.8672,-93.9310,1.679,1111122 
TCOON,ioos:station:TCOON:524:1,2015-08-15T01:12:00Z,29.8672,-93.9310,1.612,1111122 
TCOON,ioos:station:TCOON:524:1,2015-08-15T02:12:00Z,29.8672,-93.9310,1.563,1111122 
TCOON,ioos:station:TCOON:524:1,2015-08-15T03:12:00Z,29.8672,-93.9310,1.511,1111122 
TCOON,ioos:station:TCOON:524:1,2015-08-15T04:12:00Z,29.8672,-93.9310,1.505,1111122 
TCOON,ioos:station:TCOON:524:1,2015-08-15T05:12:00Z,29.8672,-93.9310,1.51,1111122 
TCOON,ioos:station:TCOON:524:1,2015-08-15T06:12:00Z,29.8672,-93.9310,1.458,1111122 
TCOON,ioos:station:TCOON:524:1,2015-08-15T07:42:00Z,29.8672,-93.9310,1.571,1111122 
TCOON,ioos:station:TCOON:524:1,2015-08-15T08:12:00Z,29.8672,-93.9310,1.591,1111122 
TCOON,ioos:station:TCOON:524:1,2015-08-15T09:18:00Z,29.8672,-93.9310,1.658,1111122 
TCOON,ioos:station:TCOON:524:1,2015-08-15T10:12:00Z,29.8672,-93.9310,1.672,1111122 
TCOON,ioos:station:TCOON:524:1,2015-08-15T11:18:00Z,29.8672,-93.9310,1.726,1111122 
TCOON,ioos:station:TCOON:524:1,2015-08-15T12:18:00Z,29.8672,-93.9310,1.741,1111122 
TCOON,ioos:station:TCOON:524:1,2015-08-15T13:12:00Z,29.8672,-93.9310,1.771,1111122 
TCOON,ioos:station:TCOON:524:1,2015-08-15T14:12:00Z,29.8672,-93.9310,1.759,1111122 
TCOON,ioos:station:TCOON:524:1,2015-08-15T15:18:00Z,29.8672,-93.9310,1.777,1111122 
TCOON,ioos:station:TCOON:524:1,2015-08-15T16:12:00Z,29.8672,-93.9310,1.78,1111122 
TCOON,ioos:station:TCOON:524:1,2015-08-15T17:12:00Z,29.8672,-93.9310,1.723,1111122 
TCOON,ioos:station:TCOON:524:1,2015-08-15T18:12:00Z,29.8672,-93.9310,1.84,1111122 
TCOON,ioos:station:TCOON:524:1,2015-08-15T19:12:00Z,29.8672,-93.9310,1.795,1111122 
TCOON,ioos:station:TCOON:524:1,2015-08-15T20:12:00Z,29.8672,-93.9310,1.791,1111122 
TCOON,ioos:station:TCOON:524:1,2015-08-15T21:12:00Z,29.8672,-93.9310,1.852,1111122 
TCOON,ioos:station:TCOON:524:1,2015-08-15T22:24:00Z,29.8672,-93.9310,1.83,1111122 
TCOON,ioos:station:TCOON:524:1,2015-08-15T23:18:00Z,29.8672,-93.9310,1.824,1111122 
TCOON,ioos:station:TCOON:524:1,2015-08-16T00:12:00Z,29.8672,-93.9310,1.823,1111122 
TCOON,ioos:station:TCOON:524:1,2015-08-16T01:12:00Z,29.8672,-93.9310,1.807,1111122 
TCOON,ioos:station:TCOON:524:1,2015-08-16T02:12:00Z,29.8672,-93.9310,1.814,1111122 
TCOON,ioos:station:TCOON:524:1,2015-08-16T03:12:00Z,29.8672,-93.9310,1.7,1111122 
TCOON,ioos:station:TCOON:524:1,2015-08-16T04:18:00Z,29.8672,-93.9310,1.636,1111122 
TCOON,ioos:station:TCOON:524:1,2015-08-16T05:12:00Z,29.8672,-93.9310,1.618,1111122 
TCOON,ioos:station:TCOON:524:1,2015-08-16T06:18:00Z,29.8672,-93.9310,1.61,1111122 
TCOON,ioos:station:TCOON:524:1,2015-08-16T07:42:00Z,29.8672,-93.9310,1.651,1111122 
TCOON,ioos:station:TCOON:524:1,2015-08-16T08:18:00Z,29.8672,-93.9310,1.664,1111122 
TCOON,ioos:station:TCOON:524:1,2015-08-16T09:12:00Z,29.8672,-93.9310,1.696,1111122 
TCOON,ioos:station:TCOON:524:1,2015-08-16T10:12:00Z,29.8672,-93.9310,1.729,1111122 
TCOON,ioos:station:TCOON:524:1,2015-08-16T11:12:00Z,29.8672,-93.9310,1.759,1111122 